Weather observations for the past three days for
Blairsville Airport
Imperial (Metric)
Date Time (edt) Wind (mph) Vis. (mi.) Weather Sky Cond. Temperature (ºF) Relative Humidity Wind Chill (°F) Heat Index (°F) Pressure Precipitation (in)
Air Dwpt 6 hour altimeter (in) sea level (mb) 1 hr 3 hr 6 hr
Max. Min.
15 22:35 Calm 10.00 Fair CLR 72 67.1 85% 30.1 0.0
15 22:15 Calm 10.00 Partly Cloudy SCT080 73.2 67.1 81% 30.09 0.0
15 21:55 S 5 10.00 Partly Cloudy SCT080 73.8 66.4 78% 30.09 0.0
15 21:35 Calm 10.00 Partly Cloudy SCT070 SCT080 75.6 65.5 71% 77 30.08 0.0
15 21:15 Calm 10.00 Mostly Cloudy BKN070 BKN080 77.2 64.9 66% 79 30.07 0.0
15 20:55 Calm 10.00 Mostly Cloudy BKN070 78.4 64.4 62% 80 30.07 0.0
15 20:35 S 6 10.00 Partly Cloudy SCT060 79.3 64.6 61% 81 30.06 0.0
15 20:15 S 7 10.00 Partly Cloudy SCT060 80.8 64.2 57% 82 30.05 0.0
15 19:55 W 7 10.00 Mostly Cloudy BKN060 BKN070 82.9 66.6 90.9 82.8 58% 85 30.06 0.0
15 19:35 SW 8 10.00 Overcast OVC050 83.8 67.8 59% 87 30.05 0.0
15 19:15 W 3 10.00 Mostly Cloudy BKN055 BKN065 85.6 67.3 54% 89 30.05 0.0
15 18:55 Calm 10.00 Mostly Cloudy SCT065 BKN075 BKN080 86.2 67.3 53% 89 30.05 0.0
15 18:35 S 7 10.00 Mostly Cloudy SCT065 BKN075 87.1 66.4 50% 90 30.04 0.0
15 18:15 S 6 10.00 Partly Cloudy SCT060 SCT070 88.2 66.7 49% 91 30.04 0.0
15 17:55 SW 3 10.00 Fair CLR 89.8 59.5 36% 89 30.04 0.0
15 17:35 Calm 10.00 Fair CLR 89.6 59.7 37% 89 30.04 0.0
15 17:15 Calm 10.00 Fair CLR 90 58.3 34% 89 30.05 0.0
15 16:55 W 5 10.00 Fair CLR 90 58.6 35% 89 30.05 0.0
15 16:35 Calm 10.00 Fair CLR 90.1 52.7 28% 88 30.05 0.0
15 16:15 N 6 10.00 Fair CLR 90 57.7 34% 89 30.05 0.0
15 15:55 SW 5 10.00 Fair CLR 89.1 58.6 36% 88 30.06 0.0
15 15:35 W 5 10.00 Fair CLR 88.9 64.9 45% 91 30.06 0.0
15 15:15 Calm 10.00 Partly Cloudy SCT070 SCT080 85.8 62.2 45% 86 30.06 0.0
15 14:55 S 7 10.00 Partly Cloudy SCT055 SCT070 88 64.9 46% 90 30.07 0.0
15 14:35 SE 5 10.00 Partly Cloudy SCT055 87.4 65.1 48% 89 30.07 0.0
15 14:15 S 7 7.00 Fair CLR 88.5 65.8 47% 91 30.07 0.0
15 13:55 E 5 10.00 Fair CLR 86.9 63.9 88 65.5 46% 88 30.08 0.0
15 13:35 NE 5 10.00 Fair CLR 86.9 64.9 48% 89 30.08 0.0
15 13:15 NE 6 10.00 Partly Cloudy SCT045 87.1 65.3 48% 89 30.09 0.0
15 12:55 E 3 10.00 Fair CLR 85.6 67.5 55% 89 30.09 0.0
15 12:35 N 3 7.00 Fair CLR 84.7 66.9 55% 87 30.09 0.0
15 12:15 S 3 10.00 Fair CLR 84.6 67.5 57% 88 30.1 0.0
15 11:55 Calm 10.00 Fair CLR 83.3 67.1 58% 86 30.1 0.0
15 11:35 Calm 10.00 Fair CLR 83.5 67.6 59% 86 30.1 0.0
15 11:15 NE 5 10.00 Fair CLR 82.2 66.6 59% 85 30.1 0.0
15 10:55 NE 3 10.00 Fair CLR 81.9 67.5 62% 85 30.1 0.0
15 10:35 Calm 10.00 Fair CLR 80.2 69.1 69% 83 30.1 0.0
15 10:15 Calm 10.00 Fair CLR 78.3 68 71% 80 30.1 0.0
15 09:55 Calm 10.00 Fair CLR 76.5 67.5 74% 78 30.1 0.0
15 09:35 Calm 7.00 Fair CLR 74.7 67.8 79% 30.1 0.0
15 09:15 Calm 10.00 Fair CLR 73 67.6 83% 30.1 0.0
15 08:55 Calm 10.00 Fair CLR 70.7 67.1 88% 30.1 0.0
15 08:35 Calm 10.00 Fair CLR 69.3 66.2 90% 30.1 0.0
15 08:15 Calm 7.00 Fair CLR 67.6 65.8 94% 30.1 0.0
15 07:55 Calm 7.00 Fog/Mist CLR 64.9 64.6 65.3 60.8 99% 30.09 0.0
15 07:35 Calm 5.00 Fair with Haze CLR 62.6 0 0% 30.08 0.0
15 07:15 Calm 5.00 Fair with Haze CLR 62.6 0 0% 30.07 0.0
15 06:55 Calm 2.00 Fog/Mist CLR 62.6 0 0% 30.07 0.0
15 06:35 Calm 2.50 Fog/Mist CLR 60.8 0 0% 30.06 0.0
15 06:15 Calm 3.00 Fog/Mist CLR 62.6 0 0% 30.06 0.0
15 05:55 Calm 3.50 Fog/Mist CLR 62.6 0 0% 30.05 0.0
15 05:35 S 3 4.00 Fair with Haze CLR 60.8 0 0% 30.05 0.0
15 05:15 Calm 2.50 Fog/Mist CLR 62.6 0 0% 30.05 0.0
15 04:55 Calm 2.50 Fog/Mist CLR 62.6 0 0% 30.05 0.0
15 04:35 Calm 5.00 Fair with Haze CLR 62.6 0 0% 30.05 0.0
15 04:15 Calm 5.00 Fair with Haze CLR 62.6 0 0% 30.04 0.0
15 03:55 Calm 5.00 Fair with Haze CLR 62.6 0 0% 30.04 0.0
15 03:35 Calm 5.00 Fair with Haze CLR 64.4 0 0% 30.04 0.0
15 03:15 Calm 5.00 Fair with Haze CLR 64.4 0 0% 30.04 0.0
15 02:55 Calm 3.00 Fog/Mist CLR 64.4 0 0% 30.04 0.0
15 02:35 Calm 5.00 Fair with Haze CLR 64.4 0 0% 30.04 0.0
15 02:15 Calm 5.00 Fair with Haze CLR 64.4 0 0% 30.04 0.0
15 01:55 Calm 7.00 Fair with Haze CLR 64.4 0 81.1 64.9 0% 30.05 0.0
15 01:35 Calm 7.00 Fair with Haze CLR 66.2 0 0% 30.05 0.0
15 01:15 Calm 7.00 Fair with Haze CLR 66.2 0 0% 30.05 0.0
15 00:55 Calm 7.00 Fair with Haze CLR 66.2 0 0% 30.05 0.0
15 00:35 Calm 10.00 Fair CLR 66.2 66.2 100% 30.05 0.0
15 00:15 Calm 10.00 Fair CLR 66.9 66.7 99% 30.05 0.0
14 23:55 Calm 10.00 Fair CLR 68.2 67.1 96% 30.05 0.0
14 23:35 Calm 10.00 Fair CLR 68.4 67.5 97% 30.05 0.0
14 23:15 Calm 10.00 Fair CLR 68.5 67.8 98% 30.05 0.0
14 22:55 Calm 10.00 Fair CLR 69.8 68.4 95% 30.05 0.0
14 22:35 Calm 10.00 Fair CLR 70.3 68.5 94% 30.05 0.0
14 22:15 Calm 10.00 Fair CLR 70.9 68.4 92% 30.04 0.0
14 21:55 S 3 10.00 Fair CLR 72.1 68.5 89% 30.04 0.0
14 21:35 Calm 10.00 Fair CLR 73.2 68.4 85% 30.03 0.0
14 21:15 Calm 10.00 Fair CLR 74.3 68.4 82% 30.02 0.0
14 20:55 Calm 10.00 Fair CLR 76.6 68.4 76% 78 30.01 0.0
14 20:35 Calm 10.00 Fair CLR 78.3 68.4 72% 80 30.01 0.0
14 20:15 Calm 10.00 Fair CLR 80.2 65.7 61% 82 30.01 0.0
14 19:55 Calm 7.00 Fair CLR 81 65.8 86.5 80.6 60% 83 30.01 0.0
14 19:35 W 3 10.00 Fair CLR 82.9 65.1 55% 85 30 0.0
14 19:15 Calm 10.00 Fair CLR 83.5 64.8 53% 85 30 0.0
14 18:55 Calm 10.00 Fair CLR 84.4 64.2 51% 86 30 0.0
14 18:35 NW 3 10.00 Fair CLR 85.1 64.8 51% 87 29.99 0.0
14 18:15 W 6 10.00 Fair CLR 85.3 63.3 48% 86 29.99 0.0
14 17:55 Calm 10.00 Fair CLR 85.5 64.9 50% 87 30 0.0
14 17:35 Calm 10.00 Fair CLR 85.8 63 46% 87 30 0.0
14 17:15 NW 3 10.00 Fair CLR 81.9 63.3 53% 83 30 0.0
14 16:55 NW 5 10.00 Fair CLR 85.1 62.6 47% 86 30.01 0.0
14 16:35 NW 3 10.00 Fair CLR 85.5 61.2 44% 86 30.01 0.0
14 16:15 N 6 10.00 Fair CLR 86 61.7 44% 86 30.01 0.0
14 15:55 NW 5 10.00 Fair CLR 84.7 62.2 47% 85 30.02 0.0
14 15:35 NE 7 10.00 Fair CLR 84.4 61.7 47% 85 30.03 0.0
14 15:15 NW 6 10.00 Fair CLR 84.6 62.6 48% 85 30.03 0.0
14 14:55 N 3 10.00 Partly Cloudy SCT060 85.1 63.3 48% 86 30.04 0.0
14 14:35 N 6 10.00 Partly Cloudy SCT060 84.4 64 51% 86 30.04 0.0
14 14:15 N 6 10.00 Mostly Cloudy BKN050 84.7 64.9 52% 86 30.05 0.0
14 13:55 NW 5 10.00 Partly Cloudy SCT044 SCT050 84.4 64.9 84.7 63.7 52% 86 30.05 0.0
14 13:35 NW 5 10.00 Mostly Cloudy BKN044 BKN050 82 65.5 57% 84 30.05 0.0
14 13:15 Calm 10.00 Partly Cloudy SCT044 SCT049 82.8 64.4 54% 84 30.05 0.0
14 12:55 N 5 10.00 Partly Cloudy SCT040 SCT047 82.2 65.7 57% 84 30.06 0.0
14 12:35 NW 5 10.00 Partly Cloudy SCT038 SCT046 SCT050 80.4 65.1 60% 82 30.07 0.0
14 12:15 N 5 10.00 Partly Cloudy BKN038 SCT050 80.2 65.7 61% 82 30.07 0.0
14 11:55 Calm 10.00 Partly Cloudy SCT038 80.8 66 61% 83 30.07 0.0
14 11:35 N 6 10.00 Fair CLR 80.6 65.7 60% 83 30.08 0.0
14 11:15 N 3 10.00 Fair CLR 80.1 65.8 62% 82 30.08 0.0
14 10:55 Calm 10.00 Fair CLR 78.1 64.9 64% 80 30.08 0.0
14 10:35 Calm 7.00 Fair CLR 77 63.9 64% 79 30.08 0.0
14 10:15 Calm 10.00 Fair CLR 75.9 64.4 68% 78 30.08 0.0
14 09:55 Calm 10.00 Fair CLR 73.8 64.2 72% 30.09 0.0
14 09:35 Calm 10.00 Fair CLR 73 64.4 74% 30.09 0.0
14 09:15 Calm 10.00 Fair CLR 70.2 64 81% 30.1 0.0
14 08:55 E 3 5.00 Fog/Mist CLR 68.7 65.1 88% 30.1 0.0
14 08:35 Calm 10.00 Fair CLR 65.8 63.9 93% 30.09 0.0
14 08:15 Calm 10.00 Fair CLR 64.4 63.3 96% 30.09 0.0
14 07:55 Calm 7.00 Fair CLR 63.9 63.7 65.8 59.9 99% 30.09 0.0
14 07:35 Calm 5.00 Fair with Haze CLR 62.6 0 0% 30.09 0.0
14 07:15 Calm 5.00 Fair with Haze CLR 60.8 0 0% 30.1 0.0
14 06:55 Calm 4.00 Fair with Haze CLR 60.8 0 0% 30.08 0.0
14 06:35 Calm 0.25 Fog VV002 60.8 0 0% 30.07 0.0
14 06:15 Calm 3.00 Fog/Mist CLR 60.8 0 0% 30.07 0.0
14 05:55 Calm 1.25 Fog/Mist VV007 60.8 0 0% 30.07 0.0
14 05:35 Calm 5.00 Fair with Haze CLR 60.8 0 0% 30.07 0.0
14 05:15 Calm 0.75 Fog VV005 62.6 0 0% 30.06 0.0
14 04:55 Calm 4.00 Fair with Haze CLR 62.6 0 0% 30.07 0.0
14 04:35 Calm 3.50 Fog/Mist CLR 62.6 0 0% 30.06 0.0
14 04:15 Calm 3.00 Fog/Mist CLR 62.6 0 0% 30.06 0.0
14 03:55 Calm 7.00 Partly Cloudy SCT060 62.6 0 0% 30.07 0.0
14 03:35 Calm 5.00 Partly Cloudy with Haze SCT060 62.6 0 0% 30.07 0.0
14 03:15 Calm 7.00 Partly Cloudy with Haze SCT060 62.6 0 0% 30.07 0.0
14 02:55 Calm 7.00 Fair CLR 64.4 64.4 100% 30.07 0.0
14 02:35 Calm 10.00 Fair CLR 64.4 64.4 100% 30.07 0.0
14 02:15 Calm 10.00 Partly Cloudy SCT065 65.7 65.1 98% 30.06 0.0
14 01:55 Calm 10.00 Overcast OVC055 65.8 65.3 77.7 65.5 98% 30.06 0.0
14 01:35 Calm 10.00 Mostly Cloudy BKN055 66.6 65.3 96% 30.06 0.0
14 01:15 Calm 10.00 Partly Cloudy SCT055 65.8 65.3 98% 30.06 0.0
14 00:55 N 3 10.00 Fair CLR 66.2 65.3 97% 30.07 0.0
14 00:35 Calm 10.00 Fair CLR 67.6 66 95% 30.07 0.0
14 00:15 Calm 10.00 Partly Cloudy SCT060 SCT080 68.7 65.1 88% 30.07 0.0
13 23:55 Calm 10.00 Mostly Cloudy BKN060 BKN080 69.4 66 89% 30.07 0.0
13 23:35 Calm 10.00 Mostly Cloudy BKN060 BKN080 70 65.1 85% 30.07 0.0
13 23:15 E 16 G 93 10.00 Mostly Cloudy SCT060 BKN080 71.1 65.1 82% 30.06 0.0
13 22:55 SE 3 10.00 Overcast BKN060 OVC080 71.8 64.9 79% 30.06 0.0
13 22:35 Calm 10.00 Mostly Cloudy SCT060 BKN080 71.1 65.7 83% 30.06 0.0
13 22:15 E 3 10.00 Mostly Cloudy SCT060 BKN080 71.6 65.5 81% 30.05 0.0
13 21:55 Calm 10.00 Overcast SCT050 OVC065 72.5 65.8 80% 30.05 0.0
13 21:35 NE 3 10.00 Overcast SCT050 OVC065 72.5 66.4 81% 30.05 0.0
13 21:15 Calm 10.00 Overcast SCT050 BKN075 OVC085 73.4 66 78% 30.05 0.0
13 20:55 Calm 10.00 Overcast SCT050 OVC085 73.6 65.7 76% 30.05 0.0
13 20:35 SE 3 10.00 Mostly Cloudy BKN050 75.9 65.3 70% 78 30.05 0.0
13 20:15 S 3 10.00 Partly Cloudy SCT055 76.6 64.6 66% 78 30.05 0.0
13 19:55 S 3 10.00 Fair CLR 77.9 63.9 84.4 77.7 62% 80 30.05 0.0
13 19:35 S 3 10.00 Fair CLR 79 64.6 61% 81 30.05 0.0
13 19:15 S 5 10.00 Fair CLR 80.4 63.7 57% 82 30.05 0.0
13 18:55 SW 5 10.00 Fair CLR 81.5 64.2 56% 83 30.04 0.0
13 18:35 S 5 10.00 Partly Cloudy SCT085 81.1 63.7 55% 83 30.05 0.0
13 18:15 S 6 10.00 Mostly Cloudy SCT070 BKN085 80.1 62.4 55% 81 30.05 0.0
13 17:55 S 8 10.00 Overcast SCT050 SCT070 OVC085 81.1 63 54% 82 30.05 0.0
13 17:35 S 8 10.00 Overcast SCT050 OVC070 82.6 64.4 54% 84 30.05 0.0
13 17:15 S 7 10.00 Partly Cloudy SCT050 83.3 62.8 50% 84 30.05 0.0
13 16:55 S 8 10.00 Fair CLR 82.8 63 51% 84 30.05 0.0
13 16:35 S 5 10.00 Fair CLR 82.2 60.8 48% 83 30.05 0.0
13 16:15 SE 5 10.00 Partly Cloudy SCT050 SCT065 SCT090 82.9 62.8 51% 84 30.05 0.0
13 15:55 SW 3 10.00 Mostly Cloudy SCT050 SCT060 BKN090 80.8 61.7 52% 82 30.06 0.0
13 15:35 S 5 10.00 Mostly Cloudy SCT050 SCT060 BKN090 81.1 61.3 51% 82 30.06 0.0
13 15:15 S 5 10.00 Mostly Cloudy SCT050 BKN090 83.5 61.3 47% 84 30.06 0.0
13 14:55 S 6 10.00 Mostly Cloudy SCT050 SCT065 BKN080 81.3 61.2 50% 82 30.07 0.0
13 14:35 SE 8 10.00 Overcast BKN050 BKN065 OVC080 82.8 62.2 50% 84 30.07 0.0
13 14:15 S 3 10.00 Overcast BKN050 OVC065 80.1 61.3 53% 81 30.07 0.0
13 13:55 SE 7 10.00 Mostly Cloudy BKN050 BKN060 BKN075 82.4 61.9 84.2 63.9 50% 83 30.07 0.0
13 13:35 SE 10 10.00 Overcast BKN048 OVC075 83.3 62.6 50% 84 30.08 0.0
13 13:15 E 5 10.00 Overcast SCT047 BKN055 OVC075 81.3 61.2 50% 82 30.08 0.0
13 12:55 SE 9 10.00 Mostly Cloudy SCT045 SCT060 BKN075 80.1 61.7 54% 81 30.08 0.0
13 12:35 SE 6 10.00 Partly Cloudy SCT041 81.1 62.2 53% 82 30.09 0.0
13 12:15 E 8 10.00 Mostly Cloudy BKN041 80.1 63.1 56% 81 30.09 0.0
13 11:35 SE 8 10.00 Fair CLR 79.2 63 58% 81 30.1 0.0
13 11:15 SE 7 10.00 Partly Cloudy SCT075 78.6 63 59% 80 30.1 0.0
13 10:55 SE 7 10.00 Mostly Cloudy BKN075 77.9 63.3 61% 80 30.1 0.0
13 10:35 E 3 10.00 Mostly Cloudy BKN075 76.3 62.8 63% 78 30.1 0.0
13 10:15 E 5 10.00 Mostly Cloudy BKN075 76.8 64.2 65% 79 30.1 0.0
13 09:55 E 6 10.00 Partly Cloudy SCT075 76.5 64.4 66% 78 30.11 0.0
13 09:35 NE 3 10.00 Partly Cloudy SCT075 73.4 64.4 74% 30.11 0.0
13 09:15 Calm 10.00 Mostly Cloudy BKN075 71.1 64.4 80% 30.11 0.0
13 08:55 Calm 10.00 Overcast OVC065 70.3 64.6 82% 30.1 0.0
13 08:35 Calm 10.00 Mostly Cloudy BKN065 68.2 63 84% 30.1 0.0
13 08:15 Calm 10.00 Mostly Cloudy BKN065 66.7 63.7 90% 30.1 0.0
13 07:55 Calm 7.00 Mostly Cloudy BKN065 63.7 63.3 63.9 59.9 99% 30.09 0.0
13 07:35 Calm 7.00 Partly Cloudy SCT065 62.6 0 0% 30.09 0.0
13 07:15 Calm 5.00 Partly Cloudy with Haze SCT065 60.8 0 0% 30.08 0.0
13 06:55 Calm 5.00 Fair with Haze CLR 60.8 0 0% 30.08 0.0
13 06:35 Calm 7.00 Fair with Haze CLR 60.8 0 0% 30.07 0.0
13 06:15 Calm 4.00 Mostly Cloudy with Haze BKN065 BKN075 60.8 0 0% 30.06 0.0
13 05:55 Calm 7.00 Overcast with Haze BKN065 OVC075 60.8 0 0% 30.07 0.0
13 05:35 Calm 5.00 Mostly Cloudy with Haze SCT065 BKN075 60.8 0 0% 30.06 0.0
13 05:15 Calm 7.00 Mostly Cloudy with Haze BKN065 BKN075 60.8 0 0% 30.06 0.0
13 04:55 Calm 7.00 Mostly Cloudy with Haze SCT065 BKN075 60.8 0 0% 30.05 0.0
13 04:35 W 3 5.00 Partly Cloudy with Haze SCT075 60.8 0 0% 30.04 0.0
13 04:15 Calm 7.00 Mostly Cloudy with Haze BKN075 60.8 0 0% 30.03 0.0
13 03:55 Calm 1.50 Fog/Mist VV007 60.8 0 0% 30.03 0.0
13 03:35 Calm 3.00 Fog/Mist CLR 60.8 0 0% 30.03 0.0
13 03:15 Calm 5.00 Fair with Haze CLR 62.6 0 0% 30.03 0.0
13 02:55 Calm 7.00 Fair with Haze CLR 62.6 0 0% 30.03 0.0
13 02:35 Calm 7.00 Fair with Haze CLR 62.6 0 0% 30.03 0.0
13 02:15 Calm 7.00 Fair CLR 62.6 0 0% 30.04 0.0
13 01:55 Calm 7.00 Fair CLR 62.6 0 77 63 0% 30.04 0.0
13 01:35 Calm 10.00 Fair CLR 63.7 63.5 99% 30.05 0.0
13 01:15 Calm 10.00 Fair CLR 65.3 64.4 97% 30.05 0.0
13 00:55 Calm 10.00 Fair CLR 66 65.1 97% 30.05 0.0
13 00:35 Calm 10.00 Fair CLR 65.8 64.8 96% 30.06 0.0
13 00:15 Calm 10.00 Fair CLR 67.5 65.1 92% 30.05 0.0
12 23:55 Calm 10.00 Fair CLR 67.3 65.3 93% 30.06 0.0
12 23:35 Calm 10.00 Partly Cloudy SCT065 68.5 65.3 89% 30.06 0.0
12 23:15 Calm 10.00 Mostly Cloudy BKN065 68.7 65.5 89% 30.06 0.0
12 22:55 Calm 10.00 Mostly Cloudy BKN065 68.9 65.5 89% 30.06 0.0
Date Time (edt) Wind (mph) Vis. (mi.) Weather Sky Cond. Air Dwpt Max. Min. Relative Humidity Wind Chill (°F) Heat Index (°F) altimeter (in) sea level (mb) 1 hr 3 hr 6 hr
6 hour
Temperature (ºF) Pressure Precipitation (in)